User: anonymous   Login
Location: Unspecified
(0.0000°N, 0.0000°E)
Time: 14:02:49
(UTC+00:00)
Language:

PAKSAT 1R - Orbit

View from above orbital plane
View from above orbital plane
View from above satellite
View from above satellite

Ground track
Ground track

The orbit data is extracted from the following two-line orbital elements,

1 37779U 11042A   15123.06909836  .00000151  00000-0  00000+0 0  9990
2 37779 000.0282 030.7460 0002685 017.1485 235.6287 01.00269994 13595
Epoch (UTC): 03 May 2015 01:39:30
Eccentricity: 0.0002685
inclination: 0.0282°
perigee height: 35775 km
apogee height: 35798 km
right ascension of ascending node: 30.7460°
argument of perigee: 17.1485°
revolutions per day: 1.00269994
mean anomaly at epoch: 235.6287°
orbit number at epoch: 1359

The dashed part of the orbit path shows where the satellite is in the earth's shadow,  

DLR